FW9817 Weather Reports


time (UTC)temp
F
wind
direction
speed
knots
gust
knots
rain 1hr
in
rain 24hr
in
rain mn
in
humidity
%
barometer
mb
20260507183100 57 354 0.9 7.8 0.00 0.51 0.00 40 1005.0
20260507181558 58 229 0.9 9.6 0.00 0.51 0.00 41 1005.1
20260507180105 58 328 1.7 7.8 0.00 0.51 0.00 38 1005.1
20260507174603 58 338 0.9 8.7 0.00 0.61 0.00 40 1005.2
20260507173101 58 21 3.5 12.2 0.00 0.61 0.00 39 1005.5
20260507171604 57 293 0.9 8.7 0.00 0.61 0.00 42 1005.5
20260507170059 57 331 3.5 11.3 0.00 0.61 0.00 43 1005.8
20260507164609 58 161 3.5 8.7 0.00 0.65 0.00 47 1005.8
20260507163106 57 347 1.7 8.7 0.00 0.65 0.00 48 1005.8
20260507161610 56 343 0.9 6.1 0.00 0.65 0.00 54 1006.2
20260507160104 55 0 0.9 7.0 0.00 0.65 0.00 49 1006.2
20260507154602 54 347 4.3 10.4 0.00 0.65 0.00 54 1006.6
20260507153101 54 330 2.6 8.7 0.00 0.65 0.00 54 1006.4
20260507151559 54 0 2.6 8.7 0.00 0.65 0.00 57 1006.6
20260507150058 53 328 0.0 7.8 0.00 0.65 0.00 60 1006.5
20260507144559 52 319 1.7 6.1 0.00 0.65 0.00 63 1006.6
20260507143102 52 344 0.9 4.3 0.00 0.65 0.00 67 1006.5
20260507141603 52 352 2.6 6.1 0.00 0.65 0.00 67 1006.6
20260507140125 52 339 2.6 6.1 0.00 0.65 0.00 67 1006.6
20260507134558 50 350 1.7 6.1 0.00 0.65 0.00 73 1006.7
20260507133100 50 163 0.9 6.1 0.00 0.65 0.00 73 1006.9
20260507131614 51 349 2.6 7.0 0.00 0.65 0.00 71 1007.0
20260507130111 51 0 0.9 3.5 0.00 0.65 0.00 72 1007.1
20260507124611 50 279 1.7 4.3 0.00 0.65 0.00 72 1006.9
20260507123101 49 255 0.9 5.2 0.00 0.65 0.00 74 1006.8
20260507121602 48 342 1.7 5.2 0.00 0.65 0.00 76 1007.0
20260507114606 47 335 0.9 4.3 0.00 0.65 0.00 79 1007.1
20260507113103 46 247 0.0 2.6 0.00 0.65 0.00 84 1007.1
20260507111559 43 332 0.0 1.7 0.00 0.65 0.00 89 1007.0
20260507110059 42 0 0.0 2.6 0.00 0.65 0.00 91 1007.0
20260507104557 41 340 1.7 1.7 0.00 0.65 0.00 93 1006.9
20260507103059 41 0 0.0 0.0 0.00 0.65 0.00 93 1006.7
20260507101557 40 0 0.0 0.9 0.00 0.65 0.00 94 1006.8
20260507100059 40 0 0.0 0.0 0.00 0.65 0.00 93 1006.8
20260507094557 40 0 0.0 0.9 0.00 0.65 0.00 93 1006.7
20260507093106 41 0 0.0 0.0 0.00 0.65 0.00 92 1007.0
20260507091606 41 0 0.0 0.0 0.00 0.65 0.00 92 1006.6
20260507090100 42 0 0.0 0.9 0.00 0.65 0.00 92 1006.5
20260507084559 42 0 0.0 0.9 0.00 0.65 0.00 91 1006.7
20260507083104 43 0 0.0 2.6 0.00 0.65 0.00 91 1006.5
20260507081559 44 0 0.0 1.7 0.00 0.65 0.00 90 1006.7
20260507080135 44 357 1.7 3.5 0.00 0.65 0.00 91 1006.5
20260507074605 44 323 0.9 1.7 0.00 0.65 0.00 91 1006.4
20260507073111 44 344 0.9 1.7 0.00 0.65 0.00 90 1005.9
20260507071613 45 323 1.7 3.5 0.00 0.65 0.00 90 1005.7
20260507070057 45 0 0.0 1.7 0.00 0.65 0.00 91 1006.0
20260507064600 45 351 0.0 4.3 0.00 0.65 0.00 90 1006.1
20260507063102 45 331 1.7 5.2 0.00 0.65 0.00 91 1005.9
20260507061559 45 342 1.7 2.6 0.00 0.65 0.00 92 1005.7
20260507060103 45 349 0.9 6.1 0.00 0.65 0.00 91 1005.8
20260507054608 45 352 0.0 3.5 0.00 0.65 0.00 92 1005.8
20260507053100 46 342 0.9 4.3 0.00 0.65 0.00 92 1005.6
20260507051601 46 319 0.9 4.3 0.00 0.65 0.00 93 1005.8
20260507050100 46 335 0.0 2.6 0.00 0.65 0.00 93 1005.6
20260507044623 46 330 0.9 3.5 0.00 0.65 0.00 93 1005.7
20260507043102 46 329 0.9 1.7 0.00 0.65 0.00 93 1005.8
20260507041604 46 324 0.0 1.7 0.01 0.65 0.00 93 1005.6
20260507040110 46 0 0.0 1.7 0.02 0.65 0.00 93 1005.7
20260507034603 47 0 0.0 1.7 0.02 0.65 0.65 93 1005.7
20260507033058 47 348 0.0 0.9 0.02 0.65 0.65 93 1005.7
20260507031606 47 0 1.7 4.3 0.01 0.64 0.64 92 1005.5
20260507030107 48 324 2.6 6.1 0.01 0.63 0.63 91 1005.3
20260507024557 48 318 3.5 7.0 0.01 0.63 0.63 92 1005.5
20260507023100 49 330 0.9 7.0 0.01 0.63 0.63 92 1005.2
20260507021558 49 259 3.5 7.0 0.01 0.63 0.63 92 1005.2
20260507020104 50 340 3.5 7.0 0.00 0.62 0.62 92 1005.1
20260507014608 51 297 2.6 4.3 0.00 0.62 0.62 93 1005.0
20260507013059 52 321 2.6 5.2 0.02 0.62 0.62 93 1004.7
20260507011604 53 311 1.7 4.3 0.04 0.62 0.62 93 1004.8
20260507010059 53 330 1.7 4.3 0.07 0.62 0.62 93 1004.3
20260507004558 54 328 0.9 3.5 0.09 0.62 0.62 94 1004.4
20260507003100 54 334 0.9 2.6 0.08 0.60 0.60 94 1004.1
20260507001617 55 322 0.9 6.1 0.10 0.58 0.58 93 1003.9
20260506234603 58 243 0.0 1.7 0.18 0.52 0.52 94 1003.3
20260506233058 59 259 0.0 1.7 0.18 0.52 0.52 94 1003.3
20260506231559 59 0 0.9 3.5 0.14 0.48 0.48 94 1003.2
20260506230059 59 169 0.9 5.2 0.02 0.36 0.36 93 1003.0
20260506224559 59 236 0.0 5.2 0.01 0.40 0.35 93 1003.1
20260506223057 59 131 3.5 9.6 0.00 0.39 0.34 92 1003.2
20260506221601 59 149 4.3 8.7 0.00 0.39 0.34 92 1003.3
20260506220108 59 178 3.5 7.0 0.01 0.39 0.34 92 1003.4
20260506214602 59 172 4.3 9.6 0.01 0.42 0.34 93 1003.5
20260506213104 59 155 2.6 7.8 0.02 0.42 0.34 94 1003.7
20260506211558 58 150 2.6 6.1 0.02 0.42 0.34 93 1003.6
20260506210120 58 132 1.7 4.3 0.01 0.41 0.33 93 1003.6
20260506204558 59 106 1.7 4.3 0.02 0.41 0.33 94 1003.8
20260506203141 58 119 0.9 3.5 0.09 0.40 0.32 94 1004.0
20260506201558 58 115 1.7 3.5 0.10 0.40 0.32 94 1004.2
20260506194558 57 147 3.5 6.1 0.13 0.39 0.31 94 1004.7
20260506193057 57 167 3.5 6.1 0.05 0.31 0.23 92 1004.8
20260506191605 58 131 1.7 4.3 0.06 0.30 0.22 93 1004.8
20260506190100 58 128 3.5 4.3 0.06 0.28 0.20 93 1005.1
20260506184603 59 124 0.9 4.3 0.06 0.26 0.18 92 1005.2